When you browse on this site, cookies collect data to enhance your experience and personalize the content and advertising you see.
Visit our Privacy Policy to learn more. By continuing to use the site, you agree to this use of cookies and data.
  • In Latvia
  • List of Countries
  • For 7 days
  • Water Temperature
  • Weather Map
  • Weather Widgets
  • user-avatar
    Login

    Hourly Weather Prutz

    Today, 18 January, Saturday

    Time Temperature Precipitation Wind Pressure Humidity
    00:00 -3°C° 0.1 mm 1 mps 633 mmHg 79%
    01:00 -3°C° 0.1 mm 1 mps 633 mmHg 80%
    02:00 -2°C° 0.6 mm 1 mps 633 mmHg 85%
    03:00 -2°C° 0.6 mm 1 mps 633 mmHg 89%
    04:00 -2°C° 0.6 mm 1 mps 633 mmHg 94%
    05:00 -2°C° 0.7 mm 1 mps 634 mmHg 94%
    06:00 -4°C° 0.7 mm 2 mps 634 mmHg 95%
    07:00 -4°C° 0.7 mm 2 mps 634 mmHg 96%
    08:00 -4°C° 0.3 mm 2 mps 634 mmHg 94%
    09:00 -4°C° 0.3 mm 2 mps 635 mmHg 93%
    10:00 -4°C° 0.3 mm 2 mps 635 mmHg 92%
    11:00 -4°C° 0.4 mm 2 mps 635 mmHg 90%
    12:00 -3°C° 0.4 mm 2 mps 635 mmHg 89%
    13:00 -3°C° 0.4 mm 2 mps 635 mmHg 87%
    14:00 -4°C° 0.2 mm 2 mps 634 mmHg 87%
    15:00 -4°C° 0.2 mm 2 mps 634 mmHg 87%
    16:00 -5°C° 0.2 mm 2 mps 634 mmHg 86%
    17:00 -4°C° 0 mm 1 mps 634 mmHg 88%
    18:00 -7°C° 0 mm 1 mps 633 mmHg 90%
    19:00 -9°C° 0 mm 1 mps 633 mmHg 91%
    20:00 -9°C° 0 mm 1 mps 633 mmHg 91%
    21:00 -9°C° 0 mm 1 mps 633 mmHg 91%
    22:00 -10°C° 0 mm 1 mps 633 mmHg 91%
    23:00 -10°C° 0 mm 1 mps 633 mmHg 91%

    Tomorrow, 19 January, Sunday

    Time Temperature Precipitation Wind Pressure Humidity
    00:00 -10°C° 0 mm 1 mps 633 mmHg 90%
    01:00 -10°C° 0 mm 1 mps 633 mmHg 90%
    02:00 -11°C° 0 mm 1 mps 633 mmHg 91%
    03:00 -11°C° 0 mm 1 mps 633 mmHg 91%
    04:00 -11°C° 0 mm 1 mps 633 mmHg 92%
    05:00 -11°C° 0.1 mm 1 mps 633 mmHg 93%
    06:00 -11°C° 0.1 mm 1 mps 634 mmHg 93%
    07:00 -11°C° 0.1 mm 1 mps 634 mmHg 94%
    08:00 -10°C° 0.1 mm 1 mps 635 mmHg 93%
    09:00 -9°C° 0.1 mm 1 mps 635 mmHg 92%
    10:00 -8°C° 0.1 mm 1 mps 636 mmHg 91%
    11:00 -7°C° 0.1 mm 1 mps 636 mmHg 88%
    12:00 -7°C° 0.1 mm 2 mps 637 mmHg 85%
    13:00 -6°C° 0.1 mm 2 mps 637 mmHg 82%
    14:00 -7°C° 0.1 mm 2 mps 637 mmHg 85%
    15:00 -8°C° 0.1 mm 2 mps 637 mmHg 87%
    16:00 -8°C° 0.1 mm 2 mps 637 mmHg 90%
    17:00 -8°C° 0.1 mm 1 mps 637 mmHg 92%
    18:00 -10°C° 0.1 mm 1 mps 637 mmHg 94%
    19:00 -11°C° 0.1 mm 1 mps 637 mmHg 97%
    20:00 -11°C° 0.1 mm 1 mps 638 mmHg 96%
    21:00 -11°C° 0.1 mm 1 mps 638 mmHg 94%
    22:00 -12°C° 0.1 mm 1 mps 638 mmHg 93%
    23:00 -12°C° 0 mm 1 mps 638 mmHg 92%

    Day after tomorrow, 20 January, Monday

    Time Temperature Precipitation Wind Pressure Humidity
    00:00 -12°C° 0 mm 1 mps 639 mmHg 91%
    01:00 -12°C° 0 mm 1 mps 639 mmHg 90%
    02:00 -12°C° 0 mm 1 mps 639 mmHg 88%
    03:00 -12°C° 0 mm 1 mps 639 mmHg 86%
    04:00 -12°C° 0 mm 1 mps 639 mmHg 84%
    05:00 -12°C° 0 mm 1 mps 639 mmHg 79%
    06:00 -12°C° 0 mm 1 mps 639 mmHg 73%
    07:00 -12°C° 0 mm 1 mps 640 mmHg 68%
    08:00 -10°C° 0 mm 1 mps 641 mmHg 65%
    09:00 -9°C° 0 mm 1 mps 641 mmHg 63%
    10:00 -8°C° 0 mm 2 mps 642 mmHg 61%
    11:00 -7°C° 0 mm 2 mps 643 mmHg 58%
    12:00 -5°C° 0 mm 2 mps 643 mmHg 55%
    13:00 -4°C° 0 mm 2 mps 643 mmHg 52%
    14:00 -4°C° 0 mm 2 mps 643 mmHg 55%
    15:00 -4°C° 0 mm 2 mps 643 mmHg 57%
    16:00 -5°C° 0 mm 2 mps 643 mmHg 60%
    17:00 -6°C° 0 mm 2 mps 643 mmHg 56%
    18:00 -6°C° 0 mm 2 mps 643 mmHg 52%
    19:00 -8°C° 0 mm 3 mps 643 mmHg 48%
    20:00 -8°C° 0 mm 3 mps 643 mmHg 46%
    21:00 -8°C° 0 mm 3 mps 644 mmHg 45%
    22:00 -8°C° 0 mm 3 mps 644 mmHg 43%
    23:00 -7°C° 0 mm 3 mps 644 mmHg 42%

    21 January, Tuesday

    Time Temperature Precipitation Wind Pressure Humidity
    00:00 -7°C° 0 mm 3 mps 644 mmHg 40%
    01:00 -7°C° 0 mm 3 mps 644 mmHg 39%
    02:00 -7°C° 0 mm 3 mps 644 mmHg 37%
    03:00 -6°C° 0 mm 3 mps 644 mmHg 35%
    04:00 -6°C° 0 mm 3 mps 644 mmHg 33%
    05:00 -6°C° 0 mm 3 mps 643 mmHg 31%
    06:00 -6°C° 0 mm 3 mps 643 mmHg 29%
    07:00 -5°C° 0 mm 3 mps 643 mmHg 28%
    08:00 -4°C° 0 mm 3 mps 643 mmHg 32%
    09:00 -2°C° 0 mm 3 mps 644 mmHg 36%
    10:00 0°C° 0 mm 3 mps 644 mmHg 41%
    11:00 +1°C° 0 mm 3 mps 644 mmHg 46%
    12:00 +3°C° 0 mm 2 mps 644 mmHg 52%
    13:00 +5°C° 0 mm 2 mps 644 mmHg 58%
    14:00 +4°C° 0 mm 2 mps 644 mmHg 54%
    15:00 +3°C° 0 mm 2 mps 643 mmHg 50%
    16:00 +2°C° 0 mm 2 mps 643 mmHg 46%
    17:00 0°C° 0 mm 3 mps 643 mmHg 42%
    18:00 -1°C° 0 mm 3 mps 642 mmHg 38%
    19:00 -2°C° 0 mm 3 mps 642 mmHg 34%
    20:00 -2°C° 0 mm 3 mps 642 mmHg 34%
    21:00 -2°C° 0 mm 3 mps 642 mmHg 33%
    22:00 -2°C° 0 mm 3 mps 642 mmHg 32%
    23:00 -2°C° 0 mm 3 mps 641 mmHg 32%

    22 January, Wednesday

    Time Temperature Precipitation Wind Pressure Humidity
    00:00 -2°C° 0 mm 3 mps 641 mmHg 31%
    01:00 -2°C° 0 mm 3 mps 641 mmHg 31%
    02:00 -2°C° 0 mm 2 mps 641 mmHg 31%
    03:00 -2°C° 0 mm 2 mps 640 mmHg 31%
    04:00 -2°C° 0 mm 2 mps 640 mmHg 32%
    05:00 -2°C° 0 mm 2 mps 640 mmHg 32%
    06:00 -2°C° 0 mm 2 mps 640 mmHg 32%
    07:00 -2°C° 0 mm 2 mps 639 mmHg 32%
    08:00 +1°C° 0 mm 2 mps 640 mmHg 35%
    09:00 +2°C° 0 mm 2 mps 640 mmHg 39%
    10:00 +4°C° 0 mm 1 mps 640 mmHg 43%
    11:00 +5°C° 0 mm 1 mps 640 mmHg 50%
    12:00 +6°C° 0 mm 1 mps 640 mmHg 57%
    13:00 +7°C° 0 mm 1 mps 640 mmHg 64%
    14:00 +6°C° 0 mm 1 mps 640 mmHg 58%
    15:00 +5°C° 0 mm 1 mps 640 mmHg 52%
    16:00 +5°C° 0 mm 1 mps 639 mmHg 47%
    17:00 +4°C° 0 mm 1 mps 639 mmHg 44%
    18:00 +3°C° 0 mm 1 mps 638 mmHg 41%
    19:00 +1°C° 0 mm 2 mps 638 mmHg 37%
    20:00 +1°C° 0 mm 2 mps 638 mmHg 35%
    21:00 +1°C° 0 mm 2 mps 638 mmHg 34%
    22:00 +1°C° 0 mm 1 mps 638 mmHg 32%
    23:00 -1°C° 0 mm 2 mps 638 mmHg 30%

    23 January, Thursday

    Time Temperature Precipitation Wind Pressure Humidity
    00:00 -1°C° 0 mm 2 mps 638 mmHg 29%
    01:00 +1°C° 0 mm 2 mps 637 mmHg 28%
    02:00 +1°C° 0 mm 2 mps 637 mmHg 28%
    03:00 +1°C° 0 mm 2 mps 637 mmHg 27%
    04:00 +1°C° 0 mm 2 mps 637 mmHg 26%
    05:00 +1°C° 0 mm 2 mps 637 mmHg 26%
    06:00 +1°C° 0 mm 2 mps 637 mmHg 26%
    07:00 +1°C° 0 mm 2 mps 637 mmHg 26%
    08:00 +2°C° 0 mm 2 mps 637 mmHg 30%
    09:00 +4°C° 0 mm 1 mps 638 mmHg 35%
    10:00 +5°C° 0 mm 1 mps 638 mmHg 40%
    11:00 +6°C° 0 mm 1 mps 638 mmHg 50%
    12:00 +6°C° 0 mm 1 mps 639 mmHg 60%
    13:00 +6°C° 0 mm 0 mps 639 mmHg 70%
    14:00 +5°C° 0 mm 0 mps 638 mmHg 64%
    15:00 +4°C° 0 mm 0 mps 638 mmHg 59%
    16:00 +3°C° 0 mm 0 mps 637 mmHg 53%
    17:00 +2°C° 0 mm 0 mps 637 mmHg 49%
    18:00 0°C° 0 mm 0 mps 637 mmHg 45%
    19:00 -1°C° 0 mm 0 mps 637 mmHg 41%
    20:00 0°C° 0 mm 1 mps 637 mmHg 40%
    21:00 0°C° 0 mm 1 mps 637 mmHg 39%
    22:00 0°C° 0 mm 1 mps 637 mmHg 37%
    23:00 0°C° 0 mm 1 mps 637 mmHg 36%
    Show more